Regional Weather Roundup
Issued by NWS

Home | Current Version | Previous Version | Graphics & Text | Print | Product List | Glossary On
Versions: 1 2 3 4 5 6 7 8 9 10 11 12 13 14 15 16 17 18 19 20 21 22 23 24 25 26 27 28 29 30 31 32 33 34 35 36 37 38 39 40 41 42 43 44 45 46 47 48 49 50
000
ASUS45 KCYS 250710
RWRWY

WYOMING REGIONAL WEATHER ROUNDUP
NATIONAL WEATHER SERVICE CHEYENNE WY
100 AM MDT FRI JUL 25 2014

NOTE:  "FAIR" INDICATES FEW OR NO CLOUDS BELOW 12,000 FEET
WITH NO SIGNIFICANT WEATHER AND/OR OBSTRUCTIONS TO VISIBILITY.

WYZ001-250800-
YELLOWSTONE NATIONAL PARK

CITY           SKY/WX    TMP DP  RH WIND       PRES   REMARKS
LK YELLOWSTONE   N/A     39  24  55 CALM      30.28F
W YELLOWSTONE  NOT AVBL

$$
WYZ002>013-054>058-071-098>099-250800-
NORTHERN WYOMING

CITY           SKY/WX    TMP DP  RH WIND       PRES   REMARKS
JACKSON        CLEAR     46  23  39 CALM      30.18S
CODY           NOT AVBL
GREYBULL       CLEAR     71  45  39 W6        29.92R
WORLAND        PTCLDY    65  25  22 SW7       29.95R
SHERIDAN       CLEAR     62  49  62 W8        30.01S
BUFFALO        CLEAR     63  49  60 NW9       30.07R
GILLETTE       CLEAR     62  50  64 N9        30.01R
HULETT         FAIR      61  52  72 MISG      30.02
NEWCASTLE      NOT AVBL

$$
WYZ014>020-022>026-101>103-250800-
CENTRAL WYOMING

CITY           SKY/WX    TMP DP  RH WIND       PRES   REMARKS
BIG PINEY      CLEAR     49  32  52 W5        30.23R
PINEDALE       MOSUNNY   50  34  53 CALM      30.23S
DUBOIS         FAIR      52  21  30 NW17      30.20S
LANDER         CLEAR     71  23  16 CALM      30.04R
RIVERTON       CLEAR     66  25  21 NW14      30.05S
CASPER         CLEAR     63  35  35 NW3       30.07R
DOUGLAS        CLEAR     73  45  36 N15       30.02R

$$
WYZ021-027>030-104>119-250800-
SOUTHERN WYOMING

CITY           SKY/WX    TMP DP  RH WIND       PRES   REMARKS
EVANSTON       PTCLDY    62  35  36 N6        30.23R
KEMMERER       SUNNY     55  36  47 SE5       30.25R
FORT BRIDGER   FAIR      70  33  26 CALM      30.25S
ROCK SPRINGS   CLEAR     69  28  21 CALM      30.20R
DIXON          PTSUNNY   71  45  38 NW5       30.23R
RAWLINS        PTCLDY    67  41  38 SW9       30.21R
SARATOGA       FAIR      63  45  51 E5        30.23S
LARAMIE        MOCLDY    62  48  60 SW9       30.22F
CHEYENNE       CLEAR     71  51  49 SW14G23   30.12S
TORRINGTON     CLEAR     74  52  46 S5        29.90R
PINE BLUFFS    FAIR      63  54  72 SW7       30.04S

$$


USA.gov is the U.S. government's official web portal to all federal, state and local government web resources and services.